Total_Precipitation_Accumulation
0.01 0.04 0.14 0.26 0.39 0.62 0.81 0.53 0.33 0.24 0.16 0.19 0.15 0.11 0.09 0.06 0.07 0.19 0.09 0.04 0.04 0.02 0.01 0.03 0.03 0.03 0.03 0.03 0.06 0.08 0.08 0.07 0.06 0.07 0.08 0.07 0.06 0.06 0.06 0.07 0.12 0.15 0.13 0.09 0.07 0.07 0.08 0.09 0.09
0.01 0.05 0.15 0.24 0.50 1.00 0.85 0.42 0.26 0.27 0.15 0.17 0.16 0.14 0.09 0.08 0.04 0.04 0.05 0.04 0.02 0.02 0.01 0.02 0.03 0.02 0.03 0.03 0.04 0.06 0.08 0.08 0.10 0.11 0.09 0.08 0.08 0.07 0.07 0.07 0.10 0.13 0.11 0.09 0.05 0.05 0.05 0.06 0.04
0.03 0.07 0.14 0.21 0.56 0.87 0.62 0.35 0.21 0.19 0.17 0.20 0.18 0.17 0.15 0.11 0.08 0.07 0.06 0.04 0.03 0.02 0.01 0.03 0.03 0.02 0.02 0.03 0.04 0.06 0.08 0.09 0.12 0.12 0.11 0.11 0.10 0.08 0.07 0.07 0.09 0.10 0.07 0.06 0.07 0.07 0.05 0.04 0.03
0.03 0.08 0.13 0.20 0.34 0.34 0.32 0.26 0.16 0.26 0.27 0.20 0.16 0.21 0.21 0.14 0.14 0.15 0.08 0.04 0.02 0.01 0.01 0.03 0.03 0.03 0.03 0.03 0.04 0.05 0.07 0.08 0.10 0.10 0.09 0.09 0.09 0.10 0.10 0.09 0.11 0.13 0.12 0.09 0.10 0.10 0.10 0.07 0.04
0.02 0.06 0.12 0.18 0.27 0.23 0.22 0.24 0.20 0.27 0.26 0.21 0.23 0.29 0.29 0.19 0.15 0.18 0.10 0.07 0.02 0.02 0.02 0.04 0.05 0.04 0.03 0.03 0.04 0.05 0.06 0.07 0.08 0.08 0.07 0.07 0.08 0.09 0.09 0.09 0.09 0.11 0.14 0.13 0.13 0.13 0.10 0.10 0.09
0.02 0.07 0.15 0.17 0.17 0.16 0.17 0.22 0.26 0.32 0.31 0.30 0.36 0.49 0.42 0.20 0.14 0.18 0.21 0.11 0.04 0.02 0.03 0.05 0.06 0.05 0.05 0.04 0.05 0.05 0.06 0.06 0.07 0.07 0.05 0.05 0.05 0.06 0.08 0.10 0.08 0.08 0.08 0.10 0.12 0.16 0.13 0.11 0.14
0.02 0.04 0.09 0.12 0.11 0.12 0.13 0.16 0.24 0.40 0.54 0.51 0.53 0.58 0.47 0.38 0.29 0.23 0.22 0.17 0.08 0.04 0.04 0.06 0.07 0.08 0.08 0.07 0.07 0.07 0.07 0.07 0.07 0.06 0.06 0.05 0.05 0.05 0.07 0.08 0.08 0.07 0.07 0.08 0.09 0.10 0.11 0.10 0.13
0.01 0.02 0.03 0.05 0.06 0.08 0.10 0.13 0.17 0.30 0.61 0.58 0.52 0.45 0.59 0.47 0.34 0.27 0.25 0.30 0.20 0.09 0.07 0.08 0.11 0.12 0.12 0.11 0.12 0.12 0.11 0.10 0.10 0.10 0.10 0.09 0.08 0.08 0.10 0.11 0.10 0.11 0.10 0.10 0.11 0.12 0.13 0.14 0.14
0.01 0.02 0.02 0.03 0.04 0.06 0.08 0.11 0.17 0.29 0.40 0.49 0.62 0.52 0.53 0.38 0.28 0.27 0.29 0.37 0.35 0.24 0.16 0.15 0.21 0.20 0.17 0.17 0.17 0.17 0.17 0.17 0.17 0.18 0.18 0.16 0.15 0.18 0.24 0.22 0.25 0.25 0.28 0.28 0.30 0.33 0.33 0.32 0.23
0.00 0.01 0.01 0.02 0.03 0.04 0.05 0.08 0.11 0.31 0.64 0.79 0.84 0.66 0.50 0.40 0.45 0.46 0.44 0.46 0.52 0.44 0.31 0.23 0.23 0.21 0.20 0.19 0.23 0.26 0.25 0.28 0.28 0.36 0.38 0.37 0.39 0.37 0.29 0.36 0.48 0.61 0.70 0.71 0.83 0.96 0.78 0.60 0.60
0.00 0.00 0.01 0.02 0.03 0.02 0.02 0.05 0.12 0.25 0.59 0.74 0.71 0.63 0.58 0.48 0.46 0.65 0.74 0.67 0.69 0.69 0.51 0.39 0.32 0.31 0.31 0.34 0.36 0.42 0.41 0.49 0.53 0.62 0.69 0.70 0.62 0.50 0.44 0.53 0.73 0.91 0.98 0.97 1.33 1.46 1.06 1.12 1.34
0.00 0.00 0.00 0.02 0.03 0.01 0.02 0.05 0.18 0.28 0.42 0.54 0.54 0.83 0.89 0.60 0.60 0.74 0.82 0.92 0.88 0.94 0.78 0.67 0.57 0.56 0.56 0.57 0.56 0.57 0.59 0.66 0.74 0.82 0.88 0.97 0.98 0.85 0.80 0.88 1.01 1.18 1.23 1.44 1.61 1.79 1.61 1.65 1.57
0.00 0.00 0.00 0.01 0.01 0.02 0.05 0.08 0.14 0.34 0.43 0.51 0.62 0.73 0.78 0.62 0.63 0.71 0.92 0.91 1.01 1.08 0.98 0.93 0.81 0.79 0.80 0.88 0.95 0.91 0.92 0.96 1.01 1.11 1.18 1.27 1.39 1.35 1.34 1.28 1.34 1.29 1.46 1.65 1.93 1.92 2.16 2.17 1.93
0.00 0.00 0.00 0.01 0.02 0.05 0.17 0.23 0.21 0.42 0.44 0.43 0.58 0.79 0.70 0.64 0.72 0.62 0.69 0.87 1.08 1.11 1.03 1.01 1.03 1.14 1.21 1.23 1.28 1.38 1.45 1.46 1.48 1.49 1.53 1.63 1.79 1.97 1.90 1.71 1.67 1.54 1.62 1.89 2.14 2.17 2.52 2.38 2.25
0.00 0.01 0.03 0.05 0.07 0.13 0.22 0.37 0.36 0.45 0.41 0.48 0.51 0.63 0.68 0.67 0.69 0.69 0.72 0.79 0.96 1.00 1.02 1.19 1.43 1.58 1.70 1.79 1.88 1.88 1.93 1.89 1.91 2.05 2.13 2.17 2.18 2.22 2.09 1.94 1.85 1.94 2.06 2.19 2.19 2.29 2.57 2.31 2.21
0.00 0.05 0.10 0.13 0.14 0.18 0.35 0.70 0.59 0.58 0.47 0.51 0.58 0.64 0.69 0.70 0.73 0.76 0.76 0.79 0.90 1.01 1.14 1.37 1.65 1.96 2.15 2.22 2.32 2.35 2.29 2.22 2.31 2.35 2.40 2.42 2.34 2.26 2.30 2.07 1.92 2.18 2.30 2.39 2.47 2.47 2.50 2.43 2.33
0.02 0.05 0.12 0.17 0.11 0.14 0.27 0.51 0.45 0.53 0.57 0.59 0.65 0.63 0.65 0.66 0.71 0.74 0.76 0.86 1.08 1.37 1.61 1.87 1.95 2.07 2.24 2.47 2.61 2.44 2.35 2.25 2.24 2.22 2.24 2.22 2.21 2.24 2.47 2.25 2.24 2.42 2.58 2.48 2.30 2.59 2.68 2.53 2.46
0.02 0.06 0.10 0.14 0.14 0.12 0.23 0.38 0.42 0.51 0.63 0.69 0.70 0.74 0.82 0.86 0.99 1.09 1.16 1.30 1.47 1.83 2.11 2.15 2.15 2.41 2.82 3.12 3.05 2.78 2.43 2.24 2.14 2.06 2.01 2.05 2.18 2.26 2.50 2.29 2.34 2.54 2.65 2.66 2.64 2.70 2.69 2.55 2.57
0.02 0.07 0.10 0.12 0.18 0.19 0.27 0.32 0.53 0.71 0.78 0.84 1.01 1.21 1.37 1.48 1.54 1.63 1.76 1.92 2.00 2.04 2.19 2.30 2.59 2.98 3.16 3.12 3.10 3.06 2.74 2.46 2.14 1.91 1.91 2.00 2.04 2.20 2.45 2.18 2.47 2.62 2.60 2.66 2.69 2.81 2.68 2.52 2.71
0.04 0.09 0.12 0.15 0.22 0.20 0.32 0.42 0.60 0.91 0.98 0.95 0.96 1.00 1.06 1.41 1.63 1.77 1.92 2.00 1.96 2.08 2.30 2.58 2.89 3.20 3.11 3.24 3.41 3.34 3.10 2.52 2.17 1.97 1.94 1.99 2.04 2.11 2.28 2.53 2.57 2.64 2.65 2.65 2.62 2.63 2.43 2.25 2.59
0.06 0.08 0.12 0.17 0.27 0.23 0.32 0.58 0.74 0.97 1.11 0.99 0.92 0.88 0.83 1.06 1.35 1.46 1.54 1.65 1.89 2.22 2.59 2.85 3.04 3.11 3.08 3.21 3.30 3.03 2.79 2.36 2.22 2.21 2.11 2.05 2.17 2.22 2.35 2.52 2.59 2.51 2.43 2.45 2.55 2.45 2.30 2.12 2.25
0.07 0.06 0.07 0.12 0.21 0.31 0.39 0.80 1.09 1.27 1.14 0.94 0.95 1.00 1.08 1.18 1.19 1.28 1.39 1.63 1.97 2.29 2.66 2.99 2.99 2.96 2.91 3.01 3.08 2.92 2.64 2.36 2.26 2.28 2.08 1.93 1.91 1.98 2.09 2.16 2.31 2.37 2.36 2.32 2.29 2.26 2.27 2.16 2.03
0.05 0.05 0.05 0.11 0.18 0.30 0.42 0.73 1.13 1.23 1.08 0.88 0.86 1.02 1.21 1.15 1.08 1.20 1.34 1.54 1.72 2.03 2.33 2.61 2.80 2.84 2.76 2.72 2.69 2.66 2.46 2.21 2.08 2.02 1.90 1.85 1.88 1.80 1.81 1.92 2.10 2.16 2.08 2.07 2.21 2.37 2.33 2.16 1.99
0.04 0.05 0.08 0.16 0.29 0.49 0.38 0.50 0.90 1.11 0.99 0.82 0.81 0.92 1.07 1.23 1.23 1.27 1.46 1.58 1.65 1.84 2.10 2.27 2.40 2.45 2.41 2.32 2.28 2.30 2.24 2.18 2.03 1.88 1.89 1.92 1.86 1.74 1.68 1.71 1.82 1.90 1.88 1.86 1.90 2.00 2.03 2.00 2.07
0.05 0.12 0.31 0.53 0.75 0.68 0.45 0.57 0.93 0.86 0.72 0.65 0.69 0.87 1.08 1.30 1.31 1.39 1.55 1.64 1.69 1.72 1.77 1.83 1.87 1.92 1.86 1.78 1.74 1.78 1.80 1.82 1.75 1.73 1.79 1.83 1.76 1.68 1.65 1.59 1.54 1.55 1.58 1.67 1.82 1.84 1.84 1.92 2.01
0.08 0.16 0.39 0.42 0.50 0.52 0.55 0.79 0.89 0.72 0.60 0.59 0.62 0.75 0.99 1.11 1.17 1.28 1.35 1.27 1.21 1.23 1.28 1.31 1.32 1.34 1.31 1.33 1.37 1.40 1.49 1.54 1.53 1.64 1.65 1.70 1.68 1.63 1.52 1.39 1.34 1.33 1.36 1.44 1.61 1.77 1.79 1.86 1.91
0.16 0.22 0.20 0.32 0.34 0.51 0.66 0.79 0.77 0.60 0.69 0.74 0.76 0.81 0.84 0.84 0.82 0.84 0.86 0.89 0.95 0.97 0.97 0.97 1.01 1.02 0.97 0.97 1.06 1.14 1.20 1.28 1.30 1.40 1.43 1.41 1.41 1.34 1.30 1.27 1.26 1.22 1.25 1.29 1.32 1.45 1.47 1.56 1.62
0.18 0.28 0.38 0.55 0.62 0.62 0.63 0.86 1.00 0.98 0.96 0.90 1.00 1.19 1.03 0.74 0.62 0.59 0.59 0.63 0.67 0.70 0.75 0.79 0.88 0.97 0.95 0.88 0.88 0.90 0.95 1.00 1.10 1.17 1.19 1.23 1.26 1.23 1.17 1.18 1.18 1.13 1.11 1.13 1.16 1.20 1.25 1.23 1.29
0.27 0.35 0.44 0.55 0.59 0.61 0.66 0.79 0.67 0.93 0.99 0.98 1.00 1.00 0.83 0.54 0.38 0.33 0.34 0.38 0.46 0.59 0.67 0.69 0.80 0.88 0.84 0.74 0.73 0.77 0.80 0.83 0.89 0.96 0.98 1.03 1.09 1.16 1.17 1.14 1.10 1.01 0.95 0.94 0.97 0.98 1.08 1.09 1.08
0.22 0.34 0.44 0.55 0.56 0.57 0.61 0.74 0.51 0.65 0.70 0.71 0.73 0.57 0.44 0.31 0.23 0.21 0.21 0.25 0.33 0.42 0.47 0.55 0.64 0.74 0.76 0.72 0.72 0.76 0.79 0.79 0.79 0.82 0.81 0.82 0.88 0.91 0.93 0.93 0.99 1.02 1.00 0.98 0.96 0.93 0.91 0.96 0.99